Tracking 19709 objects as of 20-Jun-2019
HD Live streaming from Space Station
objects crossing your sky now

FENGYUN 1C DEB

Track FENGYUN 1C DEB now!
10-day predictions


NORAD ID: 30468
Int'l Code: 1999-025AGF
Perigee: 812.5 km
Apogee: 934.9 km
Inclination: 99.1 °
Period: 102.3 minutes
Semi major axis: 7244 km
RCS: 0.042 m2 (small)
Launch date: May 10, 1999
Source: People's Republic of China (PRC)
Launch site: Taiyaun Space Center, China (TSC)

Note: This is SATELLITE DEBRIS
aabbcc
Your satellite tracking list
Your tracking list is empty




NASA's NSSDC Master Catalog

Two Line Element Set (TLE):
1 30468U 99025AGF 19170.81285990  .00000380  00000-0  24298-3 0  9995
2 30468  99.0958 212.0177 0084457 228.1595 194.2348 14.07893760634282
Source of the keplerian elements: AFSPC